Ypsilanti, MI

3:51 PM EDT on May 29, 2017 (GMT -0400)
Willow Run

Weather History for KYIP - September, 2013

Change the Weather History Date:

Sunday, September 8, 2013

  Actual Average Record
Temperature  
Mean Temperature 68 °F -  
Max Temperature 78 °F 79 °F 96 °F (1978)
Min Temperature 57 °F 57 °F 39 °F (1986)
Cooling Degree Days 4    
Growing Degree Days 18 (Base 50)    
Moisture  
Dew Point 58 °F    
Average Humidity 63    
Maximum Humidity 78    
Minimum Humidity 43    
Precipitation  
Precipitation 0.00 in - - ()
Sea Level Pressure  
Sea Level Pressure 30.02 in    
Wind  
Wind Speed 9 mph (NE)    
Max Wind Speed 15 mph    
Max Gust Speed 17 mph    
Visibility 10 miles    
Events      
Averages and records for this station are not official NWS values.
T = Trace of Precipitation, MM = Missing Value Source: NWS Daily Summary

Daily Weather History Graph

Daily Weather History Graph

Search for Another Location

Airport or City:

Trip Planner

Search our weather history database for the weather conditions in past years. The results will help you decide how hot, cold, wet, or windy it might be!

Date:

Astronomy

Sep. 08, 2013 Rise Set
Actual Time 7:07 AM EDT 7:55 PM EDT
Civil Twilight 6:38 AM EDT 8:23 PM EDT
Nautical Twilight 6:04 AM EDT 8:57 PM EDT
Astronomical Twilight 5:29 AM EDT 9:32 PM EDT
Moon 10:28 AM EDT (9/8) 9:25 PM EDT (9/8)
Length of Visible Light 13h 45m
Length of Day
12h 48m
Waxing Crescent, 11% of the Moon is Illuminated
Sep 8
Waxing Crescent
Sep 12
First Quarter
Sep 19
Full
Sep 26
Last Quarter
Oct 4
New

Hourly Weather History & Observations

Time (EDT) Temp. Dew Point Humidity Pressure Visibility Wind Dir Wind Speed Gust Speed Precip Events Conditions
12:53 AM 73.9 °F 64.0 °F 71% 29.92 in 10.0 mi WNW 6.9 mph - N/A   Overcast
1:53 AM 73.0 °F 64.0 °F 73% 29.93 in 10.0 mi NW 5.8 mph - N/A   Mostly Cloudy
2:53 AM 73.0 °F 64.0 °F 73% 29.92 in 10.0 mi NNW 10.4 mph - N/A   Mostly Cloudy
3:53 AM 72.0 °F 63.0 °F 73% 29.93 in 7.0 mi North 8.1 mph - N/A   Scattered Clouds
4:05 AM 73.4 °F 64.4 °F 73% 29.95 in 7.0 mi North 5.8 mph - N/A   Mostly Cloudy
4:33 AM 73.4 °F 66.2 °F 78% 29.96 in 7.0 mi North 6.9 mph - N/A   Overcast
4:53 AM 73.0 °F 64.9 °F 76% 29.95 in 8.0 mi North 6.9 mph - N/A   Overcast
5:53 AM 73.0 °F 63.0 °F 71% 29.96 in 10.0 mi North 10.4 mph - N/A   Overcast
6:53 AM 72.0 °F 63.0 °F 73% 29.99 in 10.0 mi NNE 12.7 mph - N/A   Overcast
7:53 AM 71.1 °F 60.1 °F 68% 30.02 in 10.0 mi NNE 15.0 mph - N/A   Overcast
8:53 AM 71.1 °F 61.0 °F 70% 30.03 in 10.0 mi NE 9.2 mph - N/A   Overcast
9:53 AM 72.0 °F 61.0 °F 68% 30.04 in 10.0 mi NE 11.5 mph - N/A   Overcast
10:53 AM 70.0 °F 60.1 °F 71% 30.06 in 10.0 mi NE 12.7 mph - N/A   Overcast
11:53 AM 73.0 °F 59.0 °F 61% 30.08 in 10.0 mi NNE 11.5 mph - N/A   Overcast
12:27 PM 73.4 °F 59.0 °F 61% 30.09 in 10.0 mi NE 12.7 mph - N/A   Scattered Clouds
12:53 PM 75.9 °F 57.0 °F 52% 30.08 in 10.0 mi NE 12.7 mph - N/A   Partly Cloudy
1:53 PM 77.0 °F 54.0 °F 45% 30.08 in 10.0 mi ENE 11.5 mph 17.3 mph N/A   Clear
2:53 PM 75.9 °F 53.1 °F 45% 30.07 in 10.0 mi East 11.5 mph - N/A   Clear
3:53 PM 75.9 °F 52.0 °F 43% 30.06 in 10.0 mi NE 9.2 mph - N/A   Clear
4:53 PM 75.0 °F 52.0 °F 44% 30.05 in 10.0 mi East 6.9 mph - N/A   Clear
5:53 PM 73.9 °F 52.0 °F 46% 30.05 in 10.0 mi ENE 8.1 mph - N/A   Clear
6:53 PM 71.1 °F 51.1 °F 49% 30.06 in 10.0 mi East 6.9 mph - N/A   Clear
7:53 PM 68.0 °F 51.1 °F 55% 30.06 in 10.0 mi East 5.8 mph - N/A   Clear
8:53 PM 63.0 °F 52.0 °F 67% 30.07 in 10.0 mi ESE 4.6 mph - N/A   Clear
9:53 PM 64.0 °F 48.9 °F 58% 30.07 in 10.0 mi East 5.8 mph - N/A   Clear
10:53 PM 60.1 °F 48.9 °F 67% 30.07 in 10.0 mi ENE 4.6 mph - N/A   Clear
11:53 PM 57.9 °F 48.9 °F 72% 30.06 in 10.0 mi NE 6.9 mph - N/A   Clear